DOOM41 EGVA-KMIB

Flight info

Callsign DOOM41
Flight time N/A
Altitude 34000
Route MAXOB DCT ATHAS DCT ETIGA DCT RUBEX DCT GOMUP/M074F340 DCT 60N020W 62N030W/M074F360 63N040W 63N050W DCT KETLA/N0427F360 N982A FEDDY/N0427F380 DCT 61N073W 59N083W 57N087W 55N091W/N0425F400 DCT YIV Q834 OTLUR Q845 KOBID DCT SEGAP Q945 OSMEE DCT TUBES
Aircraft B52/H-SDE1E2FGHIJ5RTUWXY/LB1D1

Departure

Time 2026-04-12 12:22
Airport RAF Fairford (EGVA)

Arrival

Time N/A
Airport Minot Air Force Base (KMIB)
Time Latitude Longitude Altitude Speed Heading
2026-04-12 11:58 51.68118 -1.76967 270 ft 0 kts 322°
2026-04-12 12:08 51.68119 -1.76969 270 ft 1 kts 322°
2026-04-12 12:08 51.68134 -1.76983 270 ft 3 kts 328°
2026-04-12 12:08 51.68160 -1.76992 270 ft 3 kts 347°
2026-04-12 12:09 51.68189 -1.76987 270 ft 5 kts
2026-04-12 12:09 51.68223 -1.76963 270 ft 5 kts 26°
2026-04-12 12:09 51.68277 -1.76911 269 ft 13 kts 31°
2026-04-12 12:09 51.68294 -1.76894 269 ft 0 kts 31°
2026-04-12 12:10 51.68298 -1.76891 269 ft 1 kts 30°
2026-04-12 12:10 51.68311 -1.76885 269 ft 2 kts 20°
2026-04-12 12:11 51.68320 -1.76881 269 ft 0 kts 16°
2026-04-12 12:12 51.68331 -1.76878 269 ft 2 kts 13°
2026-04-12 12:12 51.68364 -1.76880 268 ft 5 kts 354°
2026-04-12 12:12 51.68387 -1.76901 268 ft 3 kts 329°
2026-04-12 12:13 51.68392 -1.76916 268 ft 1 kts 313°
2026-04-12 12:13 51.68395 -1.76929 268 ft 2 kts 301°
2026-04-12 12:13 51.68399 -1.76958 268 ft 3 kts 282°
2026-04-12 12:13 51.68396 -1.76993 268 ft 7 kts 268°
2026-04-12 12:14 51.68385 -1.77383 273 ft 78 kts 268°
2026-04-12 12:14 51.68350 -1.78665 281 ft 144 kts 267°
2026-04-12 12:14 51.68314 -1.80487 531 ft 172 kts 266°
2026-04-12 12:14 51.68243 -1.82681 852 ft 230 kts 263°
2026-04-12 12:15 51.67848 -1.85672 595 ft 317 kts 253°
2026-04-12 12:15 51.66830 -1.89209 635 ft 376 kts 241°
2026-04-12 12:15 51.65327 -1.92979 375 ft 421 kts 236°
2026-04-12 12:15 51.64993 -1.93855 919 ft 20 kts 75°
2026-04-12 12:16 51.64977 -1.93842 293 ft 0 kts 81°
2026-04-12 12:16 51.68109 -1.76957 270 ft 0 kts 199°
2026-04-12 12:16 51.68112 -1.76965 270 ft 0 kts 253°
2026-04-12 12:17 51.68122 -1.76968 270 ft 0 kts 336°
2026-04-12 12:18 51.68131 -1.76974 270 ft 4 kts 336°
2026-04-12 12:18 51.68166 -1.76996 270 ft 3 kts 343°
2026-04-12 12:19 51.68188 -1.76993 270 ft 3 kts
2026-04-12 12:19 51.68208 -1.76979 270 ft 7 kts 19°
2026-04-12 12:19 51.68300 -1.76926 269 ft 17 kts 19°
2026-04-12 12:19 51.68345 -1.76920 268 ft 5 kts
2026-04-12 12:20 51.68370 -1.76926 268 ft 3 kts 349°
2026-04-12 12:20 51.68381 -1.76934 268 ft 1 kts 339°
2026-04-12 12:20 51.68393 -1.76952 268 ft 2 kts 321°
2026-04-12 12:20 51.68399 -1.76976 268 ft 3 kts 298°
2026-04-12 12:21 51.68401 -1.77014 269 ft 6 kts 277°
2026-04-12 12:21 51.68393 -1.77273 271 ft 63 kts 268°
2026-04-12 12:21 51.68367 -1.78448 279 ft 141 kts 268°
2026-04-12 12:21 51.68314 -1.80263 564 ft 177 kts 266°
2026-04-12 12:22 51.68205 -1.82537 917 ft 238 kts 264°
2026-04-12 12:22 51.68014 -1.85564 1269 ft 306 kts 263°
2026-04-12 12:22 51.67632 -1.89297 1398 ft 371 kts 258°
2026-04-12 12:22 51.66897 -1.93612 1523 ft 421 kts 251°
2026-04-12 12:23 51.65826 -1.98195 1976 ft 449 kts 249°
2026-04-12 12:23 51.64707 -2.03003 2433 ft 466 kts 250°
2026-04-12 12:23 51.63667 -2.07983 2888 ft 468 kts 251°
2026-04-12 12:23 51.62714 -2.12946 3341 ft 459 kts 251°
2026-04-12 12:24 51.61781 -2.17823 3789 ft 454 kts 252°
2026-04-12 12:24 51.60844 -2.22661 4232 ft 452 kts 251°
2026-04-12 12:24 51.59912 -2.27497 4683 ft 452 kts 252°
2026-04-12 12:24 51.59005 -2.32346 5145 ft 453 kts 252°
2026-04-12 12:25 51.58086 -2.37194 5598 ft 455 kts 252°
2026-04-12 12:25 51.57142 -2.42074 6059 ft 457 kts 252°
2026-04-12 12:25 51.56206 -2.46977 6514 ft 460 kts 252°
2026-04-12 12:25 51.55278 -2.51919 6970 ft 463 kts 252°
2026-04-12 12:26 51.54389 -2.56829 7413 ft 466 kts 253°
2026-04-12 12:26 51.53484 -2.61861 7868 ft 469 kts 253°
2026-04-12 12:26 51.52676 -2.66997 8286 ft 470 kts 260°
2026-04-12 12:26 51.52837 -2.72161 8622 ft 476 kts 282°
2026-04-12 12:27 51.54376 -2.76949 8989 ft 485 kts 306°
2026-04-12 12:27 51.56955 -2.80369 9386 ft 494 kts 327°
2026-04-12 12:27 51.60209 -2.82187 9664 ft 504 kts 346°
2026-04-12 12:27 51.63761 -2.82414 9774 ft 513 kts 359°
2026-04-12 12:28 51.67342 -2.82249 9920 ft 518 kts 359°
2026-04-12 12:28 51.70975 -2.82127 9973 ft 521 kts 359°
2026-04-12 12:28 51.74599 -2.81903 10043 ft 522 kts
2026-04-12 12:28 51.78235 -2.81637 10218 ft 523 kts
2026-04-12 12:29 51.81876 -2.81347 10393 ft 523 kts
2026-04-12 12:29 51.85443 -2.80208 10473 ft 528 kts 18°
2026-04-12 12:29 51.88567 -2.77056 10557 ft 533 kts 41°
2026-04-12 12:29 51.90773 -2.72264 10682 ft 533 kts 63°
2026-04-12 12:30 51.91613 -2.68540 10769 ft 532 kts 77°
2026-04-12 12:30 51.91887 -2.62624 10918 ft 526 kts 94°
2026-04-12 12:30 51.91548 -2.54788 11201 ft 525 kts 96°
2026-04-12 12:30 51.90886 -2.49005 11326 ft 521 kts 110°
2026-04-12 12:31 51.89354 -2.43749 11449 ft 515 kts 126°
2026-04-12 12:31 51.87758 -2.40852 11510 ft 508 kts 142°
2026-04-12 12:31 51.84729 -2.38095 11608 ft 497 kts 164°
2026-04-12 12:31 51.80268 -2.37653 11784 ft 485 kts 192°
2026-04-12 12:32 51.78121 -2.38819 11870 ft 481 kts 207°
2026-04-12 12:32 51.75481 -2.42044 12005 ft 478 kts 227°
2026-04-12 12:32 51.74199 -2.44932 12120 ft 478 kts 238°
2026-04-12 12:32 51.72583 -2.51607 12383 ft 479 kts 252°
2026-04-12 12:33 51.71742 -2.56814 12585 ft 476 kts 255°
2026-04-12 12:33 51.71075 -2.61978 12765 ft 467 kts 258°